Preview of NWS' New Version of Forecast
This preview is not operational and should not be used for support decisions.
Latest weather observations around

Columbia - Jim Hamilton L.B. Owens Airport (KCUB)

Using English Units (Switch to International System of Units)
Date/ Time (EDT) Wind (mph) Vis. (mi) Weather Sky Cond. Temp (°F) Rel. Humidity Wind Chill (°F) Heat Index (°F) Pressure Precip. (in)
Air Dwpt 6 hour Altimeter (inHg) Sea level (inHg) 1 hr 3 hr 6 hr
Max Min
Jun 27 01:53 Calm 10 Clear CLR 72 69     91%   73 30.16 30.15      
Jun 27 00:53 Calm 10 Clear CLR 72 68     87%   73 30.16 30.15      
Jun 26 23:53 Calm 10 Clear CLR 74 68     82%   75 30.15 30.14      
Jun 26 22:53 Calm 10 Clear CLR 76 68     76%   77 30.14 30.13      
Jun 26 21:53 Calm 10 Clear CLR 77 68     74%   78 30.12 30.11      
Jun 26 20:53 Calm 10 Clear CLR 81 67     62%   83 30.12 30.11      
Jun 26 19:53 Calm 10 Clear CLR 84 66     55%   86 30.12 30.11      
Jun 26 18:53 NNW 5 10 Clear CLR 85 65     51%   87 30.12 30.11      
Jun 26 17:53 Calm 10 Clear CLR 87 63     45%   88 30.12 30.11      
Jun 26 16:53 Calm 10 Clear CLR 86 63     46%   87 30.12 30.11      
Jun 26 15:53 3 10 Clear CLR 87 62     43%   88 30.13 30.12      
Jun 26 14:53 5 10 Clear CLR 87 61     42%   87 30.14 30.13      
Jun 26 13:53 5 10 Clear CLR 86 62     45%   87 30.14 30.13      
Jun 26 12:53 NNE 3 10 Clear CLR 85 63     48%   86 30.16 30.15      
Jun 26 11:53 NNE 5 10 Clear CLR 85 62     46%   86 30.17 30.16      
Jun 26 10:53 Calm 10 Clear CLR 83 63     51%   84 30.16 30.15      
Jun 26 09:53 5 10 Clear CLR 82 64     55%   84 30.17 30.16      
Jun 26 08:53 NE 3 10 Clear CLR 79 66     65%   80 30.15 30.14      
Jun 26 07:53 NNW 3 10 Clear CLR 75 66     74%   76 30.13 30.12      
Jun 26 06:53 Calm 10 Clear CLR 74 67     79%   75 30.11 30.1      
Jun 26 05:53 Calm 10 Clear CLR 74 68     82%   75 30.1 30.09      
Jun 26 04:53 Calm 10 Clear CLR 74 69     85%   75 30.08 30.07      
Jun 26 03:53 Calm 10 Clear CLR 76 69     79%   77 30.07 30.06      
Jun 26 02:53 Calm 10 Clear CLR 74 69     85%   75 30.06 30.05      
Jun 26 01:53 Calm 10 Clear CLR 75 69     82%   76 30.06 30.05      
Jun 26 00:53 Calm 10 Clear CLR 75 69     82%   76 30.07 30.06      
Jun 25 23:53 Calm 10 Clear CLR 78 69     74%   79 30.07 30.06      
Jun 25 22:53 Calm 10 Clear CLR 79 68     69%   80 30.05 30.04      
Jun 25 21:53 Calm 10 Clear CLR 81 67     62%   83 30.03 30.02      
Jun 25 20:53 3 10 Clear CLR 83 66     57%   85 30.01 30      
Jun 25 19:53 WNW 7 10 Clear CLR 86 63     46%   87 30 29.99      
Jun 25 18:53 W 13 10 Clear CLR 88 63     43%   89 29.99 29.98      
Jun 25 17:53 WNW 11 10 Clear CLR 89 61     39%   89 29.99 29.98      
Jun 25 16:53 W 11 10 Clear CLR 90 62     40%   90 29.98 29.97      
Jun 25 15:53 WNW 6 10 Clear CLR 90 62     40%   90 29.99 29.98      
Jun 25 14:53 WNW 10 10 Clear CLR 90 62     40%   90 30 29.99      
Jun 25 13:53 W 7 10 Clear CLR 89 65     45%   91 30 29.99      
Jun 25 12:53 6 10 Mostly Clear FEW047 87 66     50%   89 30.02 30.01      
Jun 25 11:53 5 10 Clear CLR 85 65     51%   87 30.03 30.01      
Jun 25 10:53 3 10 Clear CLR 83 68     61%   86 30.02 30.01      
Jun 25 09:53 Calm 10 Clear CLR 81 70     69%   84 30.02 30.01      
Jun 25 08:53 W 7 10 Clear CLR 78 70     76%   79 30.01 30      
Jun 25 07:53 Calm 10 Clear CLR 73 70     90%   74 30 29.98      
Jun 25 06:53 Calm 10 Clear CLR 71 69     93%   72 29.98 29.97      
Jun 25 05:53 Calm 10 Clear CLR 71 69     93%   72 29.95 29.94      
Jun 25 04:53 W 3 10 Clear CLR 72 69     91%   73 29.93 29.92      
Jun 25 03:53 Calm 10 Clear CLR 71 69     93%   72 29.92 29.91      
Jun 25 02:53 Calm 10 Clear CLR 71 69     93%   72 29.92 29.91      
Jun 25 01:53 SSW 3 10 Clear CLR 71 69     93%   72 29.94 29.93     0
Jun 25 00:53 Calm 10 Clear CLR 72 69     91%   73 29.96 29.95 0    
Jun 24 23:53 Calm 10 Mostly Clear FEW120 73 67     81%   74 29.98 29.97 0    
Jun 24 23:12 5 5 Rain and Fog/Mist FEW055 BKN070 OVC110 72 68     87%   73 29.99   0    
Jun 24 22:53 WNW 13 4 Heavy Rain FEW041 BKN060 OVC070 74 68     82%   75 30.01 30 0 0  
Jun 24 21:53 S 3 10 Clear CLR 84 70     63%   88 29.91 29.9      
Jun 24 20:53 SSW 5 10 Clear   86 70     59%   91 29.89 29.88      
Jun 24 19:53 SW 6 10 Mostly Clear FEW060 89 70     53%   94 29.88 29.87      
Jun 24 18:53 SW 8 10 Mostly Clear FEW075 90 68     49%   94 29.87 29.86      
Jun 24 17:53 SW 10 10 Clear   93 67     43%   97 29.87 29.86      
Jun 24 16:53 SSW 11 10 Clear CLR 94 67     41%   98 29.88 29.87      
Jun 24 15:53 SSW 11 10 Clear CLR 95 67     40%   99 29.9 29.89      
Jun 24 14:53 SW 9 10 Mostly Clear FEW055 94 68     43%   99 29.92 29.91      
Jun 24 13:53 SSW 10 10 Partly Cloudy SCT050 SCT060 92 72     52%   100 29.94 29.93      
Jun 24 12:53 3 10 Mostly Clear FEW044 91 73     56%   100 29.96 29.95      
Jun 24 11:53 SW 6 10 Clear CLR 87 71     59%   93 29.98 29.97      
Jun 24 10:53 7 10 Clear CLR 85 70     61%   89 29.99 29.98      
Jun 24 09:53 WSW 7 10 Clear CLR 82 69     65%   85 30 29.99      
Jun 24 08:53 5 10 Clear CLR 77 68     74%   78 30 29.99      
Jun 24 07:53 W 6 10 Mostly Clear FEW039 74 68     82%   75 30 29.99      
Jun 24 06:53 Calm 10 Clear CLR 71 70     96%   72 29.99 29.98      
Jun 24 05:53 Calm 10 Clear CLR 71 68     90%   72 29.97 29.96      
Jun 24 04:53 Calm 10 Clear CLR 71 68     90%   72 29.97 29.96      
Jun 24 03:53 Calm 10 Clear CLR 71 68     90%   72 29.97 29.96      
Jun 24 02:53 Calm 10 Clear CLR 72 68     87%   73 29.98 29.96      
Jun 24 01:53 Calm 10 Clear CLR 74 68     82%   75 29.99 29.98      
Jun 24 00:53 Calm 10 Clear CLR 74 67     79%   75 29.99 29.99      
May 15 14:05 E 5 1.75 Thunderstorms and Rain and Fog/Mist FEW009 BKN030 BKN048 71 69     93%   72 30.05   0    
May 15 13:43 SE 6 10 Thunderstorms FEW024 BKN049 OVC075 78 71     79%   79 30.04   0    
May 15 13:18 Calm 10 Light Rain SCT050 SCT065 OVC090 79 70     74%   82 30.04   0    
May 15 04:53 Calm 10 Clear   72 68     87%   73 30.02 30.01      
Notice The following observation data may not be complete
May 14 07:53   10 Clear CLR          %              
May 13 13:53 5 10 Clear CLR 94 56     28%   92 30.06 30.05      
May 12 01:53 Calm 10 Clear CLR 71 63     76%   71 30.1 30.09      
May 11 08:53 Calm 10 Clear CLR 74 61     64%   74 30.08 30.08      
Jun 12 07:53 Calm 10 Clear CLR 71 66     84%   72 30.22 30.22      
Jun 12 00:53 Calm 10 Clear CLR 72 65     79%   73 30.2 30.19      
Jun 09 16:53 5 10 Clear   87 58     37%   86 29.93 29.92      
Jun 09 15:53 NNW 9 10 Partly Cloudy SCT060 SCT090 87 59     39%   86 29.94 29.93      
Jun 08 20:53 Calm 10 Clear CLR 73 56     55%   73 29.87 29.86      
Jun 08 15:53 7 10 Clear CLR 80 52     38%   80 29.85 29.85      
Jun 08 07:53 NE 7 10 Clear CLR 62 53     72%     29.9 29.89      
Jun 08 03:53 3 10 Clear CLR 65 59     81%     29.86 29.85      
Jun 06 02:53 SW 5 10 Mostly Cloudy BKN010 BKN120 73 72     96%   75 29.78 29.77